| time (UTC) | temp F | wind direction | speed MPH | gust MPH | rain 1hr in | rain 24hr in | rain mn in | humidity % | barometer mb |
| 20260902023804 | 64 | 261 | 1.0 | 4.0 | 0.00 | 0.00 | 0.00 | 69 | 1011.5 |
| 20260902023305 | 64 | 246 | 1.0 | 4.0 | 0.00 | 0.00 | 0.00 | 69 | 1011.5 |
| 20260902022805 | 64 | 213 | 1.0 | 6.0 | 0.00 | 0.00 | 0.00 | 68 | 1011.5 |
| 20260902022310 | 65 | 306 | 2.0 | 4.0 | 0.00 | 0.00 | 0.00 | 67 | 1011.4 |
| 20260902022306 | 64 | 273 | 1.0 | 6.0 | 0.00 | 0.00 | 0.00 | 68 | 1011.5 |
| 20260902021801 | 65 | 292 | 2.0 | 4.0 | 0.00 | 0.00 | 0.00 | 67 | 1011.4 |
| 20260902020800 | 65 | 259 | 2.0 | 5.0 | 0.00 | 0.00 | 0.00 | 66 | 1011.4 |
| 20260902020302 | 66 | 286 | 2.0 | 5.0 | 0.00 | 0.00 | 0.00 | 64 | 1011.4 |
| 20260902015800 | 67 | 282 | 2.0 | 5.0 | 0.00 | 0.00 | 0.00 | 63 | 1011.3 |
| 20260902015305 | 67 | 302 | 2.0 | 6.0 | 0.00 | 0.00 | 0.00 | 63 | 1011.3 |
| 20260902014806 | 67 | 297 | 2.0 | 8.0 | 0.00 | 0.00 | 0.00 | 62 | 1011.4 |
| 20260902014802 | 67 | 280 | 2.0 | 6.0 | 0.00 | 0.00 | 0.00 | 63 | 1011.3 |
| 20260902014415 | 68 | 189 | 2.0 | 8.0 | 0.00 | 0.00 | 0.00 | 61 | 1011.3 |
| 20260902013304 | 68 | 265 | 3.0 | 8.0 | 0.00 | 0.00 | 0.00 | 60 | 1011.3 |
| 20260902013300 | 68 | 200 | 2.0 | 8.0 | 0.00 | 0.00 | 0.00 | 61 | 1011.3 |
| 20260902012308 | 68 | 219 | 3.0 | 8.0 | 0.00 | 0.00 | 0.00 | 59 | 1011.3 |
| 20260902012257 | 68 | 255 | 4.0 | 8.0 | 0.00 | 0.00 | 0.00 | 60 | 1011.4 |
| 20260902011256 | 68 | 158 | 2.0 | 8.0 | 0.00 | 0.00 | 0.00 | 61 | 1011.2 |
| 20260902010802 | 67 | 286 | 2.0 | 8.0 | 0.00 | 0.00 | 0.00 | 62 | 1011.3 |
| 20260902010257 | 66 | 239 | 2.0 | 8.0 | 0.00 | 0.00 | 0.00 | 65 | 1011.3 |
| 20260902005759 | 66 | 248 | 2.0 | 7.0 | 0.00 | 0.00 | 0.00 | 65 | 1011.3 |
| 20260902005257 | 66 | 218 | 2.0 | 8.0 | 0.00 | 0.00 | 0.00 | 65 | 1011.3 |
| 20260902004756 | 66 | 229 | 2.0 | 8.0 | 0.00 | 0.00 | 0.00 | 65 | 1011.3 |
| 20260902004256 | 66 | 251 | 2.0 | 8.0 | 0.00 | 0.00 | 0.00 | 65 | 1011.3 |
| 20260902003757 | 66 | 238 | 3.0 | 8.0 | 0.00 | 0.00 | 0.00 | 66 | 1011.1 |
| 20260902003258 | 66 | 314 | 2.0 | 7.0 | 0.00 | 0.00 | 0.00 | 65 | 1011.2 |
| 20260902002800 | 65 | 266 | 2.0 | 6.0 | 0.00 | 0.00 | 0.00 | 67 | 1011.3 |
| 20260902002756 | 66 | 296 | 2.0 | 7.0 | 0.00 | 0.00 | 0.00 | 66 | 1011.3 |
| 20260902001756 | 65 | 259 | 2.0 | 6.0 | 0.00 | 0.00 | 0.00 | 69 | 1011.3 |
| 20260902001257 | 65 | 283 | 2.0 | 5.0 | 0.00 | 0.00 | 0.00 | 68 | 1011.3 |
| 20260902000756 | 65 | 286 | 2.0 | 5.0 | 0.00 | 0.00 | 0.00 | 69 | 1011.3 |
| 20260902000257 | 64 | 267 | 3.0 | 8.0 | 0.00 | 0.00 | 0.00 | 69 | 1011.3 |
| 20260901235757 | 65 | 270 | 3.0 | 8.0 | 0.00 | 0.00 | 0.00 | 69 | 1011.3 |
| 20260901235307 | 65 | 299 | 3.0 | 8.0 | 0.00 | 0.00 | 0.00 | 68 | 1011.4 |
| 20260901235258 | 65 | 282 | 2.0 | 6.0 | 0.00 | 0.00 | 0.00 | 68 | 1011.4 |
| 20260901234910 | 65 | 233 | 3.0 | 8.0 | 0.00 | 0.00 | 0.00 | 68 | 1011.4 |
| 20260901233758 | 65 | 286 | 2.0 | 8.0 | 0.00 | 0.00 | 0.00 | 69 | 1011.3 |
| 20260901233301 | 65 | 306 | 2.0 | 9.0 | 0.00 | 0.00 | 0.00 | 70 | 1011.2 |
| 20260901233256 | 65 | 291 | 2.0 | 8.0 | 0.00 | 0.00 | 0.00 | 70 | 1011.2 |
| 20260901232258 | 65 | 229 | 3.0 | 9.0 | 0.00 | 0.00 | 0.00 | 70 | 1011.3 |
| 20260901231757 | 65 | 302 | 3.0 | 8.0 | 0.00 | 0.00 | 0.00 | 71 | 1011.4 |
| 20260901231257 | 65 | 289 | 2.0 | 8.0 | 0.00 | 0.00 | 0.00 | 71 | 1011.4 |
| 20260901230756 | 65 | 351 | 3.0 | 8.0 | 0.00 | 0.00 | 0.00 | 71 | 1011.4 |
| 20260901230256 | 65 | 331 | 4.0 | 8.0 | 0.00 | 0.00 | 0.00 | 71 | 1011.4 |
| 20260901225756 | 65 | 305 | 4.0 | 11.0 | 0.00 | 0.00 | 0.00 | 71 | 1011.4 |
| 20260901225255 | 65 | 355 | 3.0 | 11.0 | 0.00 | 0.00 | 0.00 | 71 | 1011.5 |
| 20260901224756 | 64 | 303 | 3.0 | 8.0 | 0.00 | 0.00 | 0.00 | 72 | 1011.4 |
| 20260901224255 | 64 | 313 | 3.0 | 9.0 | 0.00 | 0.00 | 0.00 | 72 | 1011.4 |
| 20260901223755 | 64 | 315 | 3.0 | 9.0 | 0.00 | 0.00 | 0.00 | 72 | 1011.3 |
| 20260901223255 | 64 | 298 | 3.0 | 8.0 | 0.00 | 0.00 | 0.00 | 73 | 1011.4 |
| 20260901222755 | 64 | 306 | 3.0 | 8.0 | 0.00 | 0.00 | 0.00 | 74 | 1011.5 |
| 20260901222253 | 64 | 273 | 3.0 | 8.0 | 0.00 | 0.00 | 0.00 | 74 | 1011.6 |
| 20260901221756 | 64 | 328 | 3.0 | 8.0 | 0.00 | 0.00 | 0.00 | 74 | 1011.6 |
| 20260901221751 | 64 | 321 | 3.0 | 8.0 | 0.00 | 0.00 | 0.00 | 74 | 1011.6 |
| 20260901220751 | 64 | 299 | 3.0 | 6.0 | 0.00 | 0.00 | 0.00 | 73 | 1011.5 |
| 20260901220250 | 65 | 258 | 2.0 | 6.0 | 0.00 | 0.00 | 0.00 | 72 | 1011.5 |
| 20260901215754 | 65 | 300 | 2.0 | 6.0 | 0.00 | 0.00 | 0.00 | 72 | 1011.3 |
| 20260901215750 | 65 | 304 | 2.0 | 6.0 | 0.00 | 0.00 | 0.00 | 71 | 1011.4 |
| 20260901214750 | 65 | 309 | 2.0 | 6.0 | 0.00 | 0.00 | 0.00 | 70 | 1011.2 |
| 20260901214248 | 66 | 257 | 2.0 | 6.0 | 0.00 | 0.00 | 0.00 | 69 | 1011.2 |
| 20260901213753 | 66 | 222 | 0.0 | 2.0 | 0.00 | 0.00 | 0.00 | 67 | 1011.1 |
| 20260901213748 | 66 | 284 | 1.0 | 6.0 | 0.00 | 0.00 | 0.00 | 68 | 1011.1 |
| 20260901212746 | 66 | 229 | 1.0 | 2.0 | 0.00 | 0.00 | 0.00 | 67 | 1011.0 |
| 20260901212246 | 66 | 230 | 1.0 | 2.0 | 0.00 | 0.00 | 0.00 | 68 | 1011.1 |
| 20260901211747 | 66 | 231 | 1.0 | 2.0 | 0.00 | 0.00 | 0.00 | 68 | 1011.1 |
| 20260901211244 | 66 | 232 | 1.0 | 4.0 | 0.00 | 0.00 | 0.00 | 68 | 1011.1 |
| 20260901210746 | 66 | 232 | 1.0 | 4.0 | 0.00 | 0.00 | 0.00 | 67 | 1011.1 |
| 20260901210244 | 66 | 262 | 1.0 | 4.0 | 0.00 | 0.00 | 0.00 | 67 | 1011.2 |
| 20260901205743 | 66 | 263 | 1.0 | 4.0 | 0.00 | 0.00 | 0.00 | 68 | 1011.1 |
| 20260901205245 | 67 | 237 | 1.0 | 5.0 | 0.00 | 0.00 | 0.00 | 67 | 1011.0 |
| 20260901204745 | 67 | 229 | 2.0 | 5.0 | 0.00 | 0.00 | 0.00 | 67 | 1011.1 |
| 20260901204243 | 67 | 201 | 1.0 | 4.0 | 0.00 | 0.00 | 0.00 | 68 | 1011.1 |
| 20260901203745 | 67 | 257 | 1.0 | 4.0 | 0.00 | 0.00 | 0.00 | 68 | 1011.2 |
| 20260901203243 | 67 | 300 | 1.0 | 4.0 | 0.00 | 0.00 | 0.00 | 69 | 1011.2 |
| 20260901202743 | 66 | 242 | 1.0 | 3.0 | 0.00 | 0.00 | 0.00 | 69 | 1011.2 |
| 20260901202242 | 66 | 242 | 1.0 | 3.0 | 0.00 | 0.00 | 0.00 | 69 | 1011.2 |
| 20260901201742 | 66 | 242 | 1.0 | 3.0 | 0.00 | 0.00 | 0.00 | 69 | 1011.3 |
| 20260901201246 | 66 | 247 | 1.0 | 4.0 | 0.00 | 0.00 | 0.00 | 70 | 1011.3 |
| 20260901201242 | 66 | 261 | 1.0 | 4.0 | 0.00 | 0.00 | 0.00 | 70 | 1011.3 |
| 20260901200243 | 66 | 238 | 2.0 | 5.0 | 0.00 | 0.00 | 0.00 | 69 | 1011.3 |
| 20260901195741 | 66 | 302 | 3.0 | 5.0 | 0.00 | 0.00 | 0.00 | 70 | 1011.4 |
| 20260901195240 | 66 | 313 | 2.0 | 6.0 | 0.00 | 0.00 | 0.00 | 69 | 1011.3 |
| 20260901194741 | 67 | 293 | 2.0 | 6.0 | 0.00 | 0.00 | 0.00 | 69 | 1011.2 |
| 20260901194247 | 67 | 199 | 1.0 | 5.0 | 0.00 | 0.00 | 0.00 | 66 | 1011.4 |
| 20260901194240 | 67 | 270 | 1.0 | 5.0 | 0.00 | 0.00 | 0.00 | 69 | 1011.2 |
| 20260901193740 | 67 | 267 | 1.0 | 4.0 | 0.00 | 0.00 | 0.00 | 69 | 1011.3 |
| 20260901193241 | 67 | 295 | 2.0 | 5.0 | 0.00 | 0.00 | 0.00 | 67 | 1011.3 |
| 20260901192854 | 67 | 299 | 1.0 | 3.0 | 0.00 | 0.00 | 0.00 | 66 | 1011.4 |
| 20260901192240 | 67 | 298 | 1.0 | 3.0 | 0.00 | 0.00 | 0.00 | 66 | 1011.4 |
| 20260901191239 | 67 | 297 | 1.0 | 2.0 | 0.00 | 0.00 | 0.00 | 68 | 1011.4 |
| 20260901190743 | 66 | 252 | 0.0 | 2.0 | 0.00 | 0.00 | 0.00 | 68 | 1011.5 |
| 20260901190739 | 67 | 252 | 0.0 | 2.0 | 0.00 | 0.00 | 0.00 | 68 | 1011.4 |
| 20260901185742 | 65 | 254 | 1.0 | 2.0 | 0.00 | 0.00 | 0.00 | 71 | 1011.5 |
| 20260901185738 | 66 | 253 | 0.0 | 2.0 | 0.00 | 0.00 | 0.00 | 70 | 1011.5 |
| 20260901184738 | 65 | 294 | 1.0 | 2.0 | 0.00 | 0.00 | 0.00 | 70 | 1011.7 |
| 20260901184238 | 65 | 5 | 1.0 | 3.0 | 0.00 | 0.00 | 0.00 | 70 | 1011.7 |
| 20260901183739 | 65 | 5 | 1.0 | 3.0 | 0.00 | 0.00 | 0.00 | 70 | 1011.8 |
| 20260901183243 | 65 | 317 | 1.0 | 3.0 | 0.00 | 0.00 | 0.00 | 70 | 1011.8 |
| 20260901183238 | 65 | 29 | 1.0 | 3.0 | 0.00 | 0.00 | 0.00 | 70 | 1011.7 |
| 20260901182238 | 65 | 318 | 1.0 | 3.0 | 0.00 | 0.00 | 0.00 | 70 | 1011.7 |
| 20260901181737 | 65 | 9 | 0.0 | 2.0 | 0.00 | 0.00 | 0.00 | 70 | 1011.7 |
| 20260901181238 | 65 | 104 | 1.0 | 5.0 | 0.00 | 0.00 | 0.00 | 71 | 1011.6 |
| 20260901180738 | 65 | 82 | 2.0 | 5.0 | 0.00 | 0.00 | 0.00 | 70 | 1011.6 |
| 20260901180239 | 65 | 355 | 1.0 | 2.0 | 0.00 | 0.00 | 0.00 | 71 | 1011.7 |
| 20260901175739 | 65 | 342 | 1.0 | 3.0 | 0.00 | 0.00 | 0.00 | 71 | 1011.6 |
| 20260901175238 | 65 | 0 | 1.0 | 3.0 | 0.00 | 0.00 | 0.00 | 72 | 1011.6 |
| 20260901174736 | 65 | 5 | 1.0 | 3.0 | 0.00 | 0.00 | 0.00 | 72 | 1011.6 |
| 20260901174235 | 65 | 22 | 1.0 | 2.0 | 0.00 | 0.00 | 0.00 | 73 | 1011.6 |
| 20260901173735 | 65 | 20 | 1.0 | 3.0 | 0.00 | 0.00 | 0.00 | 73 | 1011.6 |
| 20260901173236 | 65 | 22 | 1.0 | 3.0 | 0.00 | 0.00 | 0.00 | 73 | 1011.7 |
| 20260901172733 | 64 | 350 | 2.0 | 3.0 | 0.00 | 0.00 | 0.00 | 73 | 1011.7 |
| 20260901172235 | 64 | 344 | 2.0 | 4.0 | 0.00 | 0.00 | 0.00 | 74 | 1011.7 |
| 20260901171738 | 65 | 340 | 2.0 | 4.0 | 0.00 | 0.00 | 0.00 | 72 | 1011.6 |
| 20260901171734 | 65 | 351 | 2.0 | 4.0 | 0.00 | 0.00 | 0.00 | 73 | 1011.6 |
| 20260901170740 | 66 | 261 | 1.0 | 3.0 | 0.00 | 0.00 | 0.00 | 70 | 1011.6 |
| 20260901170735 | 65 | 304 | 2.0 | 4.0 | 0.00 | 0.00 | 0.00 | 71 | 1011.6 |
| 20260901165736 | 66 | 169 | 1.0 | 4.0 | 0.00 | 0.00 | 0.00 | 70 | 1011.5 |
| 20260901165731 | 66 | 201 | 1.0 | 4.0 | 0.00 | 0.00 | 0.00 | 69 | 1011.6 |
| 20260901164736 | 64 | 233 | 1.0 | 2.0 | 0.00 | 0.00 | 0.00 | 76 | 1011.7 |
| 20260901164732 | 65 | 163 | 1.0 | 2.0 | 0.00 | 0.00 | 0.00 | 73 | 1011.6 |
| 20260901163731 | 63 | 235 | 0.0 | 2.0 | 0.00 | 0.00 | 0.00 | 76 | 1011.7 |
| 20260901163230 | 63 | 238 | 0.0 | 2.0 | 0.00 | 0.00 | 0.00 | 76 | 1011.7 |
| 20260901162731 | 63 | 238 | 1.0 | 2.0 | 0.00 | 0.00 | 0.00 | 77 | 1011.8 |
| 20260901162231 | 62 | 240 | 1.0 | 2.0 | 0.00 | 0.00 | 0.00 | 78 | 1011.9 |
| 20260901161730 | 62 | 244 | 1.0 | 2.0 | 0.00 | 0.00 | 0.00 | 79 | 1011.9 |
| 20260901161229 | 62 | 245 | 1.0 | 2.0 | 0.00 | 0.00 | 0.00 | 80 | 1011.9 |
| 20260901160727 | 61 | 262 | 0.0 | 3.0 | 0.00 | 0.00 | 0.00 | 80 | 1011.9 |
| 20260901160227 | 61 | 262 | 1.0 | 3.0 | 0.00 | 0.00 | 0.00 | 81 | 1011.9 |
| 20260901155725 | 61 | 257 | 1.0 | 4.0 | 0.00 | 0.00 | 0.00 | 82 | 1011.9 |
| 20260901155225 | 61 | 294 | 2.0 | 4.0 | 0.00 | 0.00 | 0.00 | 82 | 1011.9 |
| 20260901154727 | 61 | 294 | 1.0 | 3.0 | 0.00 | 0.00 | 0.00 | 82 | 1012.0 |
| 20260901154225 | 61 | 293 | 2.0 | 3.0 | 0.00 | 0.00 | 0.00 | 82 | 1011.9 |
| 20260901153730 | 60 | 300 | 2.0 | 4.0 | 0.00 | 0.00 | 0.00 | 81 | 1011.9 |
| 20260901153726 | 61 | 294 | 2.0 | 4.0 | 0.00 | 0.00 | 0.00 | 82 | 1012.0 |
| 20260901153223 | 60 | 294 | 2.0 | 4.0 | 0.00 | 0.00 | 0.00 | 82 | 1011.9 |
| 20260901152228 | 60 | 248 | 1.0 | 2.0 | 0.00 | 0.00 | 0.00 | 81 | 1011.9 |
| 20260901152224 | 60 | 297 | 1.0 | 4.0 | 0.00 | 0.00 | 0.00 | 81 | 1011.9 |
| 20260901151225 | 60 | 237 | 1.0 | 2.0 | 0.00 | 0.00 | 0.00 | 81 | 1011.9 |
| 20260901150725 | 60 | 237 | 1.0 | 2.0 | 0.00 | 0.00 | 0.00 | 79 | 1011.9 |
| 20260901150223 | 60 | 238 | 1.0 | 3.0 | 0.00 | 0.00 | 0.00 | 78 | 1011.9 |
| 20260901145723 | 60 | 241 | 1.0 | 3.0 | 0.00 | 0.00 | 0.00 | 78 | 1011.8 |
| 20260901145224 | 60 | 185 | 1.0 | 2.0 | 0.00 | 0.00 | 0.00 | 80 | 1011.8 |
| 20260901144724 | 60 | 179 | 1.0 | 2.0 | 0.00 | 0.00 | 0.00 | 81 | 1011.8 |
| 20260901144225 | 60 | 179 | 1.0 | 2.0 | 0.00 | 0.00 | 0.00 | 81 | 1011.8 |
| 20260901143723 | 60 | 179 | 1.0 | 2.0 | 0.00 | 0.00 | 0.00 | 81 | 1011.8 |
| 20260901143225 | 60 | 179 | 1.0 | 3.0 | 0.00 | 0.00 | 0.00 | 81 | 1011.7 |
| 20260901142725 | 59 | 179 | 1.0 | 3.0 | 0.00 | 0.00 | 0.00 | 81 | 1011.7 |
| 20260901142224 | 59 | 177 | 1.0 | 3.0 | 0.00 | 0.00 | 0.00 | 81 | 1011.6 |
| 20260901141725 | 59 | 176 | 1.0 | 3.0 | 0.00 | 0.00 | 0.00 | 81 | 1011.6 |
| 20260901141224 | 59 | 180 | 1.0 | 2.0 | 0.00 | 0.00 | 0.00 | 81 | 1011.5 |
| 20260901140724 | 59 | 180 | 0.0 | 2.0 | 0.00 | 0.00 | 0.00 | 82 | 1011.6 |
| 20260901140224 | 59 | 180 | 0.0 | 2.0 | 0.00 | 0.00 | 0.00 | 82 | 1011.5 |
| 20260901135729 | 59 | 184 | 1.0 | 2.0 | 0.00 | 0.00 | 0.00 | 82 | 1011.5 |
| 20260901135725 | 59 | 184 | 1.0 | 2.0 | 0.00 | 0.00 | 0.00 | 82 | 1011.5 |
| 20260901134724 | 59 | 184 | 1.0 | 2.0 | 0.00 | 0.00 | 0.00 | 82 | 1011.5 |
| 20260901134223 | 58 | 184 | 1.0 | 2.0 | 0.00 | 0.00 | 0.00 | 82 | 1011.4 |
| 20260901133723 | 58 | 184 | 2.0 | 3.0 | 0.00 | 0.00 | 0.00 | 82 | 1011.3 |
| 20260901133225 | 58 | 184 | 1.0 | 3.0 | 0.00 | 0.00 | 0.00 | 82 | 1011.4 |
| 20260901132722 | 58 | 188 | 1.0 | 3.0 | 0.00 | 0.00 | 0.00 | 82 | 1011.4 |
| 20260901132221 | 58 | 188 | 1.0 | 3.0 | 0.00 | 0.00 | 0.00 | 82 | 1011.4 |
| 20260901131722 | 58 | 189 | 1.0 | 3.0 | 0.00 | 0.00 | 0.00 | 83 | 1011.4 |
| 20260901131223 | 58 | 196 | 1.0 | 2.0 | 0.00 | 0.00 | 0.00 | 82 | 1011.4 |
| 20260901130718 | 58 | 196 | 1.0 | 2.0 | 0.00 | 0.00 | 0.00 | 82 | 1011.4 |
| 20260901130223 | 58 | 196 | 1.0 | 3.0 | 0.00 | 0.00 | 0.00 | 82 | 1011.3 |
| 20260901130217 | 58 | 196 | 1.0 | 2.0 | 0.00 | 0.00 | 0.00 | 82 | 1011.4 |
| 20260901125830 | 58 | 196 | 1.0 | 3.0 | 0.00 | 0.00 | 0.00 | 82 | 1011.3 |
| 20260901124718 | 59 | 196 | 1.0 | 3.0 | 0.00 | 0.00 | 0.00 | 81 | 1011.3 |
| 20260901124219 | 59 | 196 | 1.0 | 3.0 | 0.00 | 0.00 | 0.00 | 81 | 1011.3 |
| 20260901123717 | 59 | 234 | 0.0 | 3.0 | 0.00 | 0.00 | 0.00 | 83 | 1011.2 |
| 20260901123217 | 59 | 243 | 0.0 | 2.0 | 0.00 | 0.00 | 0.00 | 83 | 1011.3 |
| 20260901122717 | 59 | 243 | 0.0 | 2.0 | 0.00 | 0.00 | 0.00 | 83 | 1011.3 |
| 20260901122217 | 59 | 244 | 0.0 | 2.0 | 0.00 | 0.00 | 0.00 | 83 | 1011.2 |
| 20260901121718 | 60 | 244 | 0.0 | 2.0 | 0.00 | 0.00 | 0.00 | 83 | 1011.3 |
| 20260901121218 | 60 | 244 | 0.0 | 2.0 | 0.00 | 0.00 | 0.00 | 83 | 1011.3 |
| 20260901120717 | 60 | 226 | 0.0 | 2.0 | 0.00 | 0.00 | 0.00 | 82 | 1011.3 |
| 20260901120219 | 60 | 224 | 0.0 | 4.0 | 0.00 | 0.00 | 0.00 | 83 | 1011.3 |
| 20260901115716 | 60 | 224 | 0.0 | 4.0 | 0.00 | 0.00 | 0.00 | 82 | 1011.3 |
| 20260901115216 | 60 | 251 | 0.0 | 2.0 | 0.00 | 0.00 | 0.00 | 82 | 1011.3 |
| 20260901114715 | 60 | 251 | 1.0 | 2.0 | 0.00 | 0.00 | 0.00 | 82 | 1011.2 |
| 20260901114216 | 60 | 252 | 1.0 | 2.0 | 0.00 | 0.00 | 0.00 | 82 | 1011.1 |
| 20260901113715 | 60 | 252 | 1.0 | 3.0 | 0.00 | 0.00 | 0.00 | 82 | 1011.2 |
| 20260901113220 | 60 | 247 | 1.0 | 4.0 | 0.00 | 0.00 | 0.00 | 82 | 1011.1 |
| 20260901113215 | 60 | 252 | 1.0 | 4.0 | 0.00 | 0.00 | 0.00 | 82 | 1011.2 |
| 20260901112215 | 60 | 252 | 0.0 | 3.0 | 0.00 | 0.00 | 0.00 | 82 | 1011.1 |
| 20260901111715 | 60 | 270 | 1.0 | 4.0 | 0.00 | 0.00 | 0.00 | 82 | 1011.1 |
| 20260901111213 | 60 | 241 | 2.0 | 6.0 | 0.00 | 0.00 | 0.00 | 81 | 1011.0 |
| 20260901110715 | 60 | 217 | 2.0 | 6.0 | 0.00 | 0.00 | 0.00 | 81 | 1011.0 |
| 20260901110215 | 60 | 243 | 1.0 | 4.0 | 0.00 | 0.00 | 0.00 | 81 | 1011.0 |
| 20260901105713 | 60 | 282 | 1.0 | 4.0 | 0.00 | 0.00 | 0.00 | 81 | 1010.9 |
| 20260901105212 | 60 | 237 | 1.0 | 4.0 | 0.00 | 0.00 | 0.00 | 81 | 1011.0 |
| 20260901104712 | 60 | 259 | 1.0 | 4.0 | 0.00 | 0.00 | 0.00 | 81 | 1011.0 |
| 20260901104210 | 60 | 248 | 1.0 | 4.0 | 0.00 | 0.00 | 0.00 | 80 | 1011.0 |
| 20260901103712 | 60 | 248 | 2.0 | 6.0 | 0.00 | 0.00 | 0.00 | 80 | 1010.9 |
| 20260901103212 | 60 | 257 | 3.0 | 11.0 | 0.00 | 0.00 | 0.00 | 80 | 1011.0 |
| 20260901102711 | 60 | 290 | 2.0 | 11.0 | 0.00 | 0.00 | 0.00 | 81 | 1011.0 |
| 20260901102211 | 60 | 247 | 1.0 | 5.0 | 0.00 | 0.00 | 0.00 | 81 | 1010.9 |
| 20260901101711 | 60 | 265 | 2.0 | 5.0 | 0.00 | 0.00 | 0.00 | 81 | 1011.0 |
| 20260901101216 | 60 | 244 | 2.0 | 5.0 | 0.00 | 0.00 | 0.00 | 81 | 1011.0 |
| 20260901101212 | 60 | 275 | 2.0 | 5.0 | 0.00 | 0.00 | 0.00 | 81 | 1011.0 |
| 20260901100210 | 59 | 236 | 2.0 | 6.0 | 0.00 | 0.00 | 0.00 | 81 | 1011.0 |
| 20260901095713 | 60 | 248 | 2.0 | 7.0 | 0.00 | 0.00 | 0.00 | 82 | 1010.9 |
| 20260901095708 | 60 | 258 | 2.0 | 6.0 | 0.00 | 0.00 | 0.00 | 81 | 1010.9 |
| 20260901095323 | 60 | 217 | 2.0 | 8.0 | 0.00 | 0.00 | 0.00 | 82 | 1011.0 |
| 20260901094708 | 60 | 232 | 2.0 | 7.0 | 0.00 | 0.00 | 0.00 | 82 | 1011.0 |
| 20260901093709 | 60 | 198 | 3.0 | 9.0 | 0.00 | 0.00 | 0.00 | 81 | 1011.0 |
| 20260901093209 | 59 | 255 | 3.0 | 9.0 | 0.00 | 0.00 | 0.00 | 82 | 1011.1 |
| 20260901092709 | 59 | 246 | 3.0 | 8.0 | 0.00 | 0.00 | 0.00 | 82 | 1011.0 |
| 20260901092208 | 59 | 312 | 3.0 | 8.0 | 0.00 | 0.00 | 0.00 | 82 | 1011.0 |
| 20260901091710 | 59 | 208 | 2.0 | 8.0 | 0.00 | 0.00 | 0.00 | 83 | 1010.9 |
| 20260901091207 | 59 | 236 | 2.0 | 8.0 | 0.00 | 0.00 | 0.00 | 83 | 1010.8 |
| 20260901090709 | 59 | 250 | 3.0 | 8.0 | 0.00 | 0.00 | 0.00 | 83 | 1010.8 |
| 20260901090207 | 59 | 227 | 3.0 | 8.0 | 0.00 | 0.00 | 0.00 | 83 | 1010.8 |
| 20260901085707 | 59 | 214 | 1.0 | 6.0 | 0.00 | 0.00 | 0.00 | 83 | 1010.8 |
| 20260901085206 | 59 | 248 | 2.0 | 7.0 | 0.00 | 0.00 | 0.00 | 83 | 1010.7 |
| 20260901084704 | 59 | 245 | 2.0 | 8.0 | 0.00 | 0.00 | 0.00 | 83 | 1010.6 |
| 20260901084206 | 59 | 223 | 2.0 | 8.0 | 0.00 | 0.00 | 0.00 | 83 | 1010.6 |
| 20260901083706 | 59 | 238 | 2.0 | 6.0 | 0.00 | 0.00 | 0.00 | 83 | 1010.6 |
| 20260901083205 | 59 | 235 | 2.0 | 9.0 | 0.00 | 0.00 | 0.00 | 83 | 1010.7 |
| 20260901082710 | 59 | 271 | 2.0 | 7.0 | 0.00 | 0.00 | 0.00 | 83 | 1010.8 |
| 20260901082706 | 59 | 284 | 3.0 | 9.0 | 0.00 | 0.00 | 0.00 | 83 | 1010.7 |
| 20260901081706 | 59 | 290 | 1.0 | 5.0 | 0.00 | 0.00 | 0.00 | 83 | 1010.8 |
| 20260901081206 | 59 | 238 | 2.0 | 8.0 | 0.00 | 0.00 | 0.00 | 83 | 1010.8 |
| 20260901080705 | 59 | 238 | 3.0 | 8.0 | 0.00 | 0.00 | 0.00 | 83 | 1010.8 |
| 20260901080203 | 59 | 227 | 3.0 | 8.0 | 0.00 | 0.00 | 0.00 | 83 | 1010.8 |
| 20260901075708 | 59 | 250 | 2.0 | 8.0 | 0.00 | 0.00 | 0.00 | 83 | 1010.7 |
| 20260901075704 | 59 | 250 | 3.0 | 8.0 | 0.00 | 0.00 | 0.00 | 83 | 1010.7 |
| 20260901074702 | 59 | 263 | 2.0 | 9.0 | 0.00 | 0.00 | 0.00 | 83 | 1010.6 |
| 20260901074200 | 59 | 227 | 2.0 | 9.0 | 0.00 | 0.00 | 0.00 | 83 | 1010.6 |
| 20260901073659 | 59 | 262 | 2.0 | 9.0 | 0.00 | 0.00 | 0.00 | 83 | 1010.6 |
| 20260901073200 | 59 | 211 | 3.0 | 9.0 | 0.00 | 0.00 | 0.00 | 83 | 1010.5 |
| 20260901072657 | 59 | 244 | 3.0 | 8.0 | 0.00 | 0.00 | 0.00 | 83 | 1010.5 |
| 20260901072158 | 59 | 221 | 3.0 | 7.0 | 0.00 | 0.00 | 0.00 | 83 | 1010.5 |
| 20260901071657 | 59 | 244 | 3.0 | 8.0 | 0.00 | 0.00 | 0.00 | 83 | 1010.4 |
| 20260901071202 | 59 | 241 | 2.0 | 7.0 | 0.00 | 0.00 | 0.00 | 83 | 1010.4 |
| 20260901071158 | 59 | 225 | 2.0 | 8.0 | 0.00 | 0.00 | 0.00 | 83 | 1010.5 |
| 20260901070155 | 59 | 264 | 3.0 | 7.0 | 0.00 | 0.00 | 0.00 | 83 | 1010.4 |
| 20260901065659 | 59 | 250 | 3.0 | 8.0 | 0.00 | 0.00 | 0.00 | 83 | 1010.3 |
| 20260901065655 | 59 | 225 | 3.0 | 8.0 | 0.00 | 0.00 | 0.00 | 83 | 1010.3 |
| 20260901065309 | 59 | 237 | 3.0 | 12.0 | 0.00 | 0.00 | 0.00 | 83 | 1010.3 |
| 20260901064155 | 59 | 251 | 4.0 | 12.0 | 0.00 | 0.00 | 0.00 | 83 | 1010.2 |
| 20260901063700 | 59 | 261 | 4.0 | 13.0 | 0.00 | 0.00 | 0.00 | 83 | 1010.1 |
| 20260901063656 | 59 | 234 | 5.0 | 13.0 | 0.00 | 0.00 | 0.00 | 83 | 1010.2 |
| 20260901062657 | 59 | 255 | 3.0 | 12.0 | 0.00 | 0.00 | 0.00 | 83 | 1010.2 |
| 20260901062152 | 59 | 243 | 2.0 | 9.0 | 0.00 | 0.00 | 0.00 | 83 | 1010.1 |
| 20260901061655 | 59 | 239 | 2.0 | 8.0 | 0.00 | 0.00 | 0.00 | 83 | 1010.2 |
| 20260901061153 | 59 | 236 | 2.0 | 8.0 | 0.00 | 0.00 | 0.00 | 83 | 1010.2 |
| 20260901060654 | 59 | 226 | 3.0 | 8.0 | 0.00 | 0.00 | 0.00 | 83 | 1010.2 |
| 20260901060153 | 59 | 224 | 3.0 | 10.0 | 0.00 | 0.00 | 0.00 | 83 | 1010.1 |
| 20260901055655 | 59 | 302 | 3.0 | 10.0 | 0.00 | 0.00 | 0.00 | 83 | 1010.0 |
| 20260901055153 | 59 | 229 | 2.0 | 7.0 | 0.00 | 0.00 | 0.00 | 83 | 1009.9 |
| 20260901054653 | 59 | 251 | 2.0 | 7.0 | 0.00 | 0.00 | 0.00 | 83 | 1009.8 |
| 20260901054154 | 59 | 250 | 3.0 | 10.0 | 0.00 | 0.00 | 0.00 | 83 | 1009.9 |
| 20260901053654 | 59 | 254 | 3.0 | 10.0 | 0.00 | 0.00 | 0.00 | 83 | 1009.9 |
| 20260901053152 | 59 | 213 | 3.0 | 8.0 | 0.00 | 0.00 | 0.00 | 83 | 1009.9 |
| 20260901052658 | 59 | 279 | 2.0 | 7.0 | 0.00 | 0.00 | 0.00 | 83 | 1009.9 |
| 20260901052652 | 59 | 261 | 3.0 | 8.0 | 0.00 | 0.00 | 0.00 | 83 | 1009.8 |
| 20260901052152 | 59 | 280 | 3.0 | 7.0 | 0.00 | 0.00 | 0.00 | 83 | 1009.9 |
| 20260901051806 | 59 | 259 | 3.0 | 7.0 | 0.00 | 0.00 | 0.00 | 83 | 1010.0 |
| 20260901050651 | 59 | 284 | 3.0 | 8.0 | 0.00 | 0.00 | 0.00 | 83 | 1009.8 |
| 20260901050151 | 59 | 280 | 2.0 | 12.0 | 0.00 | 0.00 | 0.00 | 83 | 1009.9 |
| 20260901045651 | 59 | 227 | 3.0 | 12.0 | 0.00 | 0.00 | 0.00 | 83 | 1009.9 |
| 20260901045151 | 59 | 252 | 3.0 | 12.0 | 0.00 | 0.00 | 0.00 | 82 | 1009.9 |
| 20260901044651 | 60 | 298 | 4.0 | 12.0 | 0.00 | 0.00 | 0.00 | 82 | 1009.9 |
| 20260901044155 | 60 | 258 | 4.0 | 11.0 | 0.00 | 0.00 | 0.00 | 82 | 1009.9 |
| 20260901044149 | 60 | 237 | 4.0 | 9.0 | 0.00 | 0.00 | 0.00 | 82 | 1009.9 |
| 20260901043149 | 60 | 242 | 4.0 | 11.0 | 0.00 | 0.00 | 0.00 | 82 | 1009.9 |
| 20260901042649 | 60 | 249 | 3.0 | 7.0 | 0.00 | 0.00 | 0.00 | 81 | 1009.9 |
| 20260901042149 | 60 | 260 | 3.0 | 8.0 | 0.00 | 0.00 | 0.00 | 81 | 1009.8 |
| 20260901041650 | 60 | 259 | 3.0 | 12.0 | 0.00 | 0.00 | 0.00 | 81 | 1009.8 |
| 20260901041149 | 60 | 267 | 4.0 | 12.0 | 0.00 | 0.00 | 0.00 | 80 | 1009.8 |
| 20260901040650 | 60 | 254 | 4.0 | 10.0 | 0.00 | 0.00 | 0.00 | 80 | 1009.8 |
| 20260901040149 | 60 | 244 | 4.0 | 13.0 | 0.00 | 0.00 | 0.00 | 80 | 1009.7 |
| 20260901035649 | 60 | 300 | 4.0 | 14.0 | 0.00 | 0.00 | 0.00 | 80 | 1009.7 |
| 20260901035146 | 60 | 296 | 4.0 | 14.0 | 0.00 | 0.00 | 0.00 | 79 | 1009.5 |
| 20260901034650 | 60 | 236 | 4.0 | 13.0 | 0.00 | 0.00 | 0.00 | 79 | 1009.6 |
| 20260901034645 | 60 | 329 | 6.0 | 14.0 | 0.00 | 0.00 | 0.00 | 79 | 1009.5 |
| 20260901033645 | 61 | 280 | 5.0 | 14.0 | 0.00 | 0.00 | 0.00 | 79 | 1009.5 |
| 20260901033144 | 61 | 286 | 4.0 | 13.0 | 0.00 | 0.00 | 0.00 | 78 | 1009.4 |
| 20260901032643 | 61 | 252 | 4.0 | 10.0 | 0.00 | 0.00 | 0.00 | 77 | 1009.4 |
| 20260901032142 | 62 | 261 | 4.0 | 11.0 | 0.00 | 0.00 | 0.00 | 76 | 1009.2 |
| 20260901031643 | 62 | 221 | 4.0 | 13.0 | 0.00 | 0.00 | 0.00 | 76 | 1009.1 |
| 20260901031144 | 62 | 298 | 5.0 | 13.0 | 0.00 | 0.00 | 0.00 | 74 | 1009.0 |
| 20260901030642 | 63 | 286 | 5.0 | 12.0 | 0.00 | 0.00 | 0.00 | 74 | 1009.0 |
| 20260901030141 | 63 | 206 | 4.0 | 11.0 | 0.00 | 0.00 | 0.00 | 72 | 1008.9 |
| 20260901025641 | 64 | 219 | 4.0 | 11.0 | 0.00 | 0.00 | 0.00 | 71 | 1008.8 |
| 20260901025141 | 64 | 188 | 6.0 | 14.0 | 0.00 | 0.00 | 0.00 | 70 | 1008.7 |
| 20260901024641 | 64 | 209 | 7.0 | 15.0 | 0.00 | 0.00 | 0.00 | 70 | 1008.7 |